Year,Month,Day,Hour,Minute,Value (Times are PST for temperature in C)
2013,10,24,00,00,7.20
2013,10,24,00,01,7.20
2013,10,24,00,02,7.10
2013,10,24,00,03,7.10
2013,10,24,00,04,7.00
2013,10,24,00,05,7.00
2013,10,24,00,06,7.00
2013,10,24,00,07,7.00
2013,10,24,00,08,7.00
2013,10,24,00,09,7.00
2013,10,24,00,10,7.10
2013,10,24,00,11,7.10
2013,10,24,00,12,7.10
2013,10,24,00,13,7.20
2013,10,24,00,14,7.20
2013,10,24,00,15,7.20
2013,10,24,00,16,7.20
2013,10,24,00,17,7.20
2013,10,24,00,18,7.20
2013,10,24,00,19,7.20
2013,10,24,00,20,7.20
2013,10,24,00,21,7.20
2013,10,24,00,22,7.20
2013,10,24,00,23,7.20
2013,10,24,00,24,7.20
2013,10,24,00,25,7.20
2013,10,24,00,26,7.20
2013,10,24,00,27,7.20
2013,10,24,00,28,7.20
2013,10,24,00,29,7.10
2013,10,24,00,30,7.10
2013,10,24,00,31,7.10
2013,10,24,00,32,7.10
2013,10,24,00,33,7.00
2013,10,24,00,34,7.10
2013,10,24,00,35,7.00
2013,10,24,00,36,7.00
2013,10,24,00,37,7.00
2013,10,24,00,38,7.00
2013,10,24,00,39,7.00
2013,10,24,00,40,6.90
2013,10,24,00,41,6.90
2013,10,24,00,42,6.90
2013,10,24,00,43,7.00
2013,10,24,00,44,7.00
2013,10,24,00,45,6.90
2013,10,24,00,46,6.90
2013,10,24,00,47,6.90
2013,10,24,00,48,6.90
2013,10,24,00,49,6.90
2013,10,24,00,50,6.90
2013,10,24,00,51,6.90
2013,10,24,00,52,6.90
2013,10,24,00,53,6.90
2013,10,24,00,54,6.80
2013,10,24,00,55,6.80
2013,10,24,00,56,6.80
2013,10,24,00,57,6.70
2013,10,24,00,58,6.70
2013,10,24,00,59,6.70
2013,10,24,01,00,6.70
2013,10,24,01,01,6.70
2013,10,24,01,02,6.70
2013,10,24,01,03,6.70
2013,10,24,01,04,6.70
2013,10,24,01,05,6.70
2013,10,24,01,06,6.70
2013,10,24,01,07,6.70
2013,10,24,01,08,6.70
2013,10,24,01,09,6.70
2013,10,24,01,10,6.70
2013,10,24,01,11,6.70
2013,10,24,01,12,6.70
2013,10,24,01,13,6.80
2013,10,24,01,14,6.80
2013,10,24,01,15,6.80
2013,10,24,01,16,6.80
2013,10,24,01,17,6.80
2013,10,24,01,18,6.80
2013,10,24,01,19,6.70
2013,10,24,01,20,6.70
2013,10,24,01,21,6.70
2013,10,24,01,22,6.70
2013,10,24,01,23,6.70
2013,10,24,01,24,6.70
2013,10,24,01,25,6.70
2013,10,24,01,26,6.70
2013,10,24,01,27,6.70
2013,10,24,01,28,6.70
2013,10,24,01,29,6.70
2013,10,24,01,30,6.70
2013,10,24,01,31,6.70
2013,10,24,01,32,6.60
2013,10,24,01,33,6.60
2013,10,24,01,34,6.60
2013,10,24,01,35,6.50
2013,10,24,01,36,6.50
2013,10,24,01,37,6.50
2013,10,24,01,38,6.40
2013,10,24,01,39,6.40
2013,10,24,01,40,6.40
2013,10,24,01,41,6.40
2013,10,24,01,42,6.40
2013,10,24,01,43,6.40
2013,10,24,01,44,6.40
2013,10,24,01,45,6.40
2013,10,24,01,46,6.40
2013,10,24,01,47,6.40
2013,10,24,01,48,6.40
2013,10,24,01,49,6.40
2013,10,24,01,50,6.50
2013,10,24,01,51,6.50
2013,10,24,01,52,6.50
2013,10,24,01,53,6.50
2013,10,24,01,54,6.50
2013,10,24,01,55,6.50
2013,10,24,01,56,6.60
2013,10,24,01,57,6.60
2013,10,24,01,58,6.60
2013,10,24,01,59,6.60
2013,10,24,02,00,6.70
2013,10,24,02,01,6.70
2013,10,24,02,02,6.70
2013,10,24,02,03,6.60
2013,10,24,02,04,6.60
2013,10,24,02,05,6.50
2013,10,24,02,06,6.40
2013,10,24,02,07,6.40
2013,10,24,02,08,6.30
2013,10,24,02,09,6.30
2013,10,24,02,10,6.30
2013,10,24,02,11,6.30
2013,10,24,02,12,6.20
2013,10,24,02,13,6.20
2013,10,24,02,14,6.20
2013,10,24,02,15,6.20
2013,10,24,02,16,6.20
2013,10,24,02,17,6.20
2013,10,24,02,18,6.10
2013,10,24,02,19,6.10
2013,10,24,02,20,6.20
2013,10,24,02,21,6.20
2013,10,24,02,22,6.20
2013,10,24,02,23,6.20
2013,10,24,02,24,6.20
2013,10,24,02,25,6.20
2013,10,24,02,26,6.30
2013,10,24,02,27,6.30
2013,10,24,02,28,6.30
2013,10,24,02,29,6.40
2013,10,24,02,30,6.50
2013,10,24,02,31,6.50
2013,10,24,02,32,6.60
2013,10,24,02,33,6.60
2013,10,24,02,34,6.60
2013,10,24,02,35,6.60
2013,10,24,02,36,6.60
2013,10,24,02,37,6.50
2013,10,24,02,38,6.50
2013,10,24,02,39,6.60
2013,10,24,02,40,6.60
2013,10,24,02,41,6.70
2013,10,24,02,42,6.80
2013,10,24,02,43,6.80
2013,10,24,02,44,6.80
2013,10,24,02,45,6.90
2013,10,24,02,46,6.90
2013,10,24,02,47,6.90
2013,10,24,02,48,6.90
2013,10,24,02,49,6.90
2013,10,24,02,50,6.90
2013,10,24,02,51,6.90
2013,10,24,02,52,6.80
2013,10,24,02,53,6.80
2013,10,24,02,54,6.80
2013,10,24,02,55,6.70
2013,10,24,02,56,6.70
2013,10,24,02,57,6.70
2013,10,24,02,58,6.70
2013,10,24,02,59,6.60
2013,10,24,03,00,6.50
2013,10,24,03,01,6.50
2013,10,24,03,02,6.40
2013,10,24,03,03,6.40
2013,10,24,03,04,6.40
2013,10,24,03,05,6.30
2013,10,24,03,06,6.30
2013,10,24,03,07,6.30
2013,10,24,03,08,6.20
2013,10,24,03,09,6.20
2013,10,24,03,10,6.10
2013,10,24,03,11,6.10
2013,10,24,03,12,6.00
2013,10,24,03,13,6.00
2013,10,24,03,14,5.90
2013,10,24,03,15,5.90
2013,10,24,03,16,5.90
2013,10,24,03,17,5.80
2013,10,24,03,18,5.80
2013,10,24,03,19,5.90
2013,10,24,03,20,5.90
2013,10,24,03,21,6.00
2013,10,24,03,22,6.00
2013,10,24,03,23,6.10
2013,10,24,03,24,6.10
2013,10,24,03,25,6.10
2013,10,24,03,26,6.20
2013,10,24,03,27,6.20
2013,10,24,03,28,6.20
2013,10,24,03,29,6.20
2013,10,24,03,30,6.30
2013,10,24,03,31,6.30
2013,10,24,03,32,6.40
2013,10,24,03,33,6.50
2013,10,24,03,34,6.50
2013,10,24,03,35,6.60
2013,10,24,03,36,6.60
2013,10,24,03,37,6.60
2013,10,24,03,38,6.70
2013,10,24,03,39,6.70
2013,10,24,03,40,6.70
2013,10,24,03,41,6.70
2013,10,24,03,42,6.60
2013,10,24,03,43,6.60
2013,10,24,03,44,6.60
2013,10,24,03,45,6.60
2013,10,24,03,46,6.60
2013,10,24,03,47,6.60
2013,10,24,03,48,6.60
2013,10,24,03,49,6.60
2013,10,24,03,50,6.60
2013,10,24,03,51,6.60
2013,10,24,03,52,6.60
2013,10,24,03,53,6.60
2013,10,24,03,54,6.60
2013,10,24,03,55,6.70
2013,10,24,03,56,6.70
2013,10,24,03,57,6.70
2013,10,24,03,58,6.70
2013,10,24,03,59,6.70
2013,10,24,04,00,6.70
2013,10,24,04,01,6.70
2013,10,24,04,02,6.60
2013,10,24,04,03,6.60
2013,10,24,04,04,6.70
2013,10,24,04,05,6.70
2013,10,24,04,06,6.70
2013,10,24,04,07,6.80
2013,10,24,04,08,6.70
2013,10,24,04,09,6.70
2013,10,24,04,10,6.60
2013,10,24,04,11,6.40
2013,10,24,04,12,6.30
2013,10,24,04,13,6.20
2013,10,24,04,14,6.10
2013,10,24,04,15,6.00
2013,10,24,04,16,5.90
2013,10,24,04,17,5.80
2013,10,24,04,18,5.80
2013,10,24,04,19,5.80
2013,10,24,04,20,5.70
2013,10,24,04,21,5.70
2013,10,24,04,22,5.70
2013,10,24,04,23,5.70
2013,10,24,04,24,5.70
2013,10,24,04,25,5.70
2013,10,24,04,26,5.70
2013,10,24,04,27,5.70
2013,10,24,04,28,5.70
2013,10,24,04,29,5.80
2013,10,24,04,30,5.80
2013,10,24,04,31,5.80
2013,10,24,04,32,5.80
2013,10,24,04,33,5.80
2013,10,24,04,34,5.90
2013,10,24,04,35,5.90
2013,10,24,04,36,5.90
2013,10,24,04,37,5.90
2013,10,24,04,38,6.00
2013,10,24,04,39,6.00
2013,10,24,04,40,5.90
2013,10,24,04,41,5.90
2013,10,24,04,42,5.90
2013,10,24,04,43,5.90
2013,10,24,04,44,5.90
2013,10,24,04,45,5.90
2013,10,24,04,46,5.90
2013,10,24,04,47,6.00
2013,10,24,04,48,6.00
2013,10,24,04,49,6.00
2013,10,24,04,50,5.90
2013,10,24,04,51,5.90
2013,10,24,04,52,5.80
2013,10,24,04,53,5.80
2013,10,24,04,54,5.70
2013,10,24,04,55,5.70
2013,10,24,04,56,5.60
2013,10,24,04,57,5.50
2013,10,24,04,58,5.50
2013,10,24,04,59,5.40
2013,10,24,05,00,5.30
2013,10,24,05,01,5.30
2013,10,24,05,02,5.30
2013,10,24,05,03,5.30
2013,10,24,05,04,5.30
2013,10,24,05,05,5.30
2013,10,24,05,06,5.30
2013,10,24,05,07,5.30
2013,10,24,05,08,5.20
2013,10,24,05,09,5.20
2013,10,24,05,10,5.20
2013,10,24,05,11,5.10
2013,10,24,05,12,5.10
2013,10,24,05,13,5.10
2013,10,24,05,14,5.10
2013,10,24,05,15,5.10
2013,10,24,05,16,5.10
2013,10,24,05,17,5.10
2013,10,24,05,18,5.20
2013,10,24,05,19,5.20
2013,10,24,05,20,5.30
2013,10,24,05,21,5.30
2013,10,24,05,22,5.40
2013,10,24,05,23,5.40
2013,10,24,05,24,5.40
2013,10,24,05,25,5.50
2013,10,24,05,26,5.50
2013,10,24,05,27,5.50
2013,10,24,05,28,5.50
2013,10,24,05,29,5.50
2013,10,24,05,30,5.50
2013,10,24,05,31,5.50
2013,10,24,05,32,5.50
2013,10,24,05,33,5.50
2013,10,24,05,34,5.50
2013,10,24,05,35,5.50
2013,10,24,05,36,5.50
2013,10,24,05,37,5.50
2013,10,24,05,38,5.50
2013,10,24,05,39,5.50
2013,10,24,05,40,5.50
2013,10,24,05,41,5.40
2013,10,24,05,42,5.40
2013,10,24,05,43,5.40
2013,10,24,05,44,5.40
2013,10,24,05,45,5.40
2013,10,24,05,46,5.40
2013,10,24,05,47,5.40
2013,10,24,05,48,5.40
2013,10,24,05,49,5.40
2013,10,24,05,50,5.40
2013,10,24,05,51,5.40
2013,10,24,05,52,5.40
2013,10,24,05,53,5.40
2013,10,24,05,54,5.40
2013,10,24,05,55,5.40
2013,10,24,05,56,5.40
2013,10,24,05,57,5.40
2013,10,24,05,58,5.50
2013,10,24,05,59,5.50
2013,10,24,06,00,5.50
2013,10,24,06,01,5.40
2013,10,24,06,02,5.40
2013,10,24,06,03,5.40
2013,10,24,06,04,5.40
2013,10,24,06,05,5.40
2013,10,24,06,06,5.40
2013,10,24,06,07,5.40
2013,10,24,06,08,5.40
2013,10,24,06,09,5.30
2013,10,24,06,10,5.30
2013,10,24,06,11,5.30
2013,10,24,06,12,5.30
2013,10,24,06,13,5.30
2013,10,24,06,14,5.40
2013,10,24,06,15,5.40
2013,10,24,06,16,5.30
2013,10,24,06,17,5.30
2013,10,24,06,18,5.40
2013,10,24,06,19,5.40
2013,10,24,06,20,5.40
2013,10,24,06,21,5.40
2013,10,24,06,22,5.40
2013,10,24,06,23,5.40
2013,10,24,06,24,5.30
2013,10,24,06,25,5.30
2013,10,24,06,26,5.30
2013,10,24,06,27,5.30
2013,10,24,06,28,5.30
2013,10,24,06,29,5.30
2013,10,24,06,30,5.20
2013,10,24,06,31,5.20
2013,10,24,06,32,5.20
2013,10,24,06,33,5.20
2013,10,24,06,34,5.20
2013,10,24,06,35,5.20
2013,10,24,06,36,5.20
2013,10,24,06,37,5.20
2013,10,24,06,38,5.10
2013,10,24,06,39,5.10
2013,10,24,06,40,5.10
2013,10,24,06,41,5.10
2013,10,24,06,42,5.10
2013,10,24,06,43,5.10
2013,10,24,06,44,5.00
2013,10,24,06,45,5.00
2013,10,24,06,46,4.90
2013,10,24,06,47,4.90
2013,10,24,06,48,4.90
2013,10,24,06,49,4.90
2013,10,24,06,50,4.90
2013,10,24,06,51,4.90
2013,10,24,06,52,4.90
2013,10,24,06,53,4.90
2013,10,24,06,54,5.00
2013,10,24,06,55,5.00
2013,10,24,06,56,5.10
2013,10,24,06,57,5.10
2013,10,24,06,58,5.10
2013,10,24,06,59,5.10
2013,10,24,07,00,5.10
2013,10,24,07,01,5.10
2013,10,24,07,02,5.10
2013,10,24,07,03,5.10
2013,10,24,07,04,5.10
2013,10,24,07,05,5.10
2013,10,24,07,06,5.10
2013,10,24,07,07,5.10
2013,10,24,07,08,5.10
2013,10,24,07,09,5.20
2013,10,24,07,10,5.20
2013,10,24,07,11,5.10
2013,10,24,07,12,5.10
2013,10,24,07,13,5.10
2013,10,24,07,14,5.10
2013,10,24,07,15,5.00
2013,10,24,07,16,4.90
2013,10,24,07,17,4.90
2013,10,24,07,18,4.90
2013,10,24,07,19,4.90
2013,10,24,07,20,4.90
2013,10,24,07,21,4.90
2013,10,24,07,22,4.90
2013,10,24,07,23,4.90
2013,10,24,07,24,4.90
2013,10,24,07,25,4.90
2013,10,24,07,26,4.90
2013,10,24,07,27,4.80
2013,10,24,07,28,4.80
2013,10,24,07,29,4.80
2013,10,24,07,30,4.90
2013,10,24,07,31,4.90
2013,10,24,07,32,4.90
2013,10,24,07,33,4.90
2013,10,24,07,34,4.90
2013,10,24,07,35,4.90
2013,10,24,07,36,4.90
2013,10,24,07,37,4.90
2013,10,24,07,38,4.90
2013,10,24,07,39,4.90
2013,10,24,07,40,4.90
2013,10,24,07,41,4.90
2013,10,24,07,42,4.80
2013,10,24,07,43,4.80
2013,10,24,07,44,4.70
2013,10,24,07,45,4.70
2013,10,24,07,46,4.60
2013,10,24,07,47,4.60
2013,10,24,07,48,4.50
2013,10,24,07,49,4.50
2013,10,24,07,50,4.50
2013,10,24,07,51,4.50
2013,10,24,07,52,4.40
2013,10,24,07,53,4.40
2013,10,24,07,54,4.40
2013,10,24,07,55,4.40
2013,10,24,07,56,4.50
2013,10,24,07,57,4.60
2013,10,24,07,58,4.70
2013,10,24,07,59,4.80
2013,10,24,08,00,4.80
2013,10,24,08,01,4.90
2013,10,24,08,02,4.90
2013,10,24,08,03,4.90
2013,10,24,08,04,4.90
2013,10,24,08,05,4.90
2013,10,24,08,06,5.00
2013,10,24,08,07,5.00
2013,10,24,08,08,5.00
2013,10,24,08,09,5.00
2013,10,24,08,10,4.90
2013,10,24,08,11,4.90
2013,10,24,08,12,4.90
2013,10,24,08,13,4.90
2013,10,24,08,14,4.90
2013,10,24,08,15,4.80
2013,10,24,08,16,4.80
2013,10,24,08,17,4.80
2013,10,24,08,18,4.80
2013,10,24,08,19,4.80
2013,10,24,08,20,4.80
2013,10,24,08,21,4.80
2013,10,24,08,22,4.80
2013,10,24,08,23,4.80
2013,10,24,08,24,4.80
2013,10,24,08,25,4.80
2013,10,24,08,26,4.80
2013,10,24,08,27,4.80
2013,10,24,08,28,4.80
2013,10,24,08,29,4.90
2013,10,24,08,30,4.90
2013,10,24,08,31,4.90
2013,10,24,08,32,4.90
2013,10,24,08,33,4.90
2013,10,24,08,34,4.90
2013,10,24,08,35,4.90
2013,10,24,08,36,4.90
2013,10,24,08,37,4.90
2013,10,24,08,38,4.90
2013,10,24,08,39,4.90
2013,10,24,08,40,5.00
2013,10,24,08,41,5.00
2013,10,24,08,42,5.00
2013,10,24,08,43,5.00
2013,10,24,08,44,5.00
2013,10,24,08,45,5.00
2013,10,24,08,46,5.00
2013,10,24,08,47,4.90
2013,10,24,08,48,4.90
2013,10,24,08,49,4.90
2013,10,24,08,50,5.00
2013,10,24,08,51,5.00
2013,10,24,08,52,5.00
2013,10,24,08,53,5.10
2013,10,24,08,54,5.10
2013,10,24,08,55,5.10
2013,10,24,08,56,5.10
2013,10,24,08,57,5.20
2013,10,24,08,58,5.20
2013,10,24,08,59,5.30
2013,10,24,09,00,5.30
2013,10,24,09,01,5.40
2013,10,24,09,02,5.40
2013,10,24,09,03,5.50
2013,10,24,09,04,5.50
2013,10,24,09,05,5.60
2013,10,24,09,06,5.60
2013,10,24,09,07,5.70
2013,10,24,09,08,5.70
2013,10,24,09,09,5.80
2013,10,24,09,10,5.80
2013,10,24,09,11,5.90
2013,10,24,09,12,6.00
2013,10,24,09,13,6.00
2013,10,24,09,14,6.10
2013,10,24,09,15,6.10
2013,10,24,09,16,6.20
2013,10,24,09,17,6.20
2013,10,24,09,18,6.30
2013,10,24,09,19,6.30
2013,10,24,09,20,6.30
2013,10,24,09,21,6.40
2013,10,24,09,22,6.40
2013,10,24,09,23,6.50
2013,10,24,09,24,6.50
2013,10,24,09,25,6.60
2013,10,24,09,26,6.60
2013,10,24,09,27,6.60
2013,10,24,09,28,6.70
2013,10,24,09,29,6.70
2013,10,24,09,30,6.80
2013,10,24,09,31,6.80
2013,10,24,09,32,6.80
2013,10,24,09,33,6.90
2013,10,24,09,34,6.90
2013,10,24,09,35,7.00
2013,10,24,09,36,7.10
2013,10,24,09,37,7.10
2013,10,24,09,38,7.10
2013,10,24,09,39,7.10
2013,10,24,09,40,7.10
2013,10,24,09,41,7.10
2013,10,24,09,42,7.10
2013,10,24,09,43,7.10
2013,10,24,09,44,7.20
2013,10,24,09,45,7.20
2013,10,24,09,46,7.20
2013,10,24,09,47,7.20
2013,10,24,09,48,7.20
2013,10,24,09,49,7.20
2013,10,24,09,50,7.20
2013,10,24,09,51,7.30
2013,10,24,09,52,7.30
2013,10,24,09,53,7.30
2013,10,24,09,54,7.30
2013,10,24,09,55,7.30
2013,10,24,09,56,7.30
2013,10,24,09,57,7.40
2013,10,24,09,58,7.40
2013,10,24,09,59,7.40
2013,10,24,10,00,7.50
2013,10,24,10,01,7.50
2013,10,24,10,02,7.60
2013,10,24,10,03,7.60
2013,10,24,10,04,7.70
2013,10,24,10,05,7.70
2013,10,24,10,06,7.70
2013,10,24,10,07,7.70
2013,10,24,10,08,7.70
2013,10,24,10,09,7.70
2013,10,24,10,10,7.70
2013,10,24,10,11,7.80
2013,10,24,10,12,7.80
2013,10,24,10,13,7.90
2013,10,24,10,14,7.90
2013,10,24,10,15,8.00
2013,10,24,10,16,8.00
2013,10,24,10,17,8.10
2013,10,24,10,18,8.10
2013,10,24,10,19,8.20
2013,10,24,10,20,8.20
2013,10,24,10,21,8.30
2013,10,24,10,22,8.30
2013,10,24,10,23,8.40
2013,10,24,10,24,8.40
2013,10,24,10,25,8.50
2013,10,24,10,26,8.60
2013,10,24,10,27,8.70
2013,10,24,10,28,8.70
2013,10,24,10,29,8.80
2013,10,24,10,30,8.90
2013,10,24,10,31,9.00
2013,10,24,10,32,9.10
2013,10,24,10,33,9.20
2013,10,24,10,34,9.20
2013,10,24,10,35,9.10
2013,10,24,10,36,9.10
2013,10,24,10,37,9.10
2013,10,24,10,38,9.10
2013,10,24,10,39,9.10
2013,10,24,10,40,9.10
2013,10,24,10,41,9.10
2013,10,24,10,42,9.20
2013,10,24,10,43,9.20
2013,10,24,10,44,9.20
2013,10,24,10,45,9.20
2013,10,24,10,46,9.20
2013,10,24,10,47,9.20
2013,10,24,10,48,9.20
2013,10,24,10,49,9.10
2013,10,24,10,50,9.10
2013,10,24,10,51,9.00
2013,10,24,10,52,8.90
2013,10,24,10,53,8.80
2013,10,24,10,54,8.70
2013,10,24,10,55,8.70
2013,10,24,10,56,8.60
2013,10,24,10,57,8.50
2013,10,24,10,58,8.50
2013,10,24,10,59,8.40
2013,10,24,11,00,8.40
2013,10,24,11,01,8.30
2013,10,24,11,02,8.40
2013,10,24,11,03,8.40
2013,10,24,11,04,8.50
2013,10,24,11,05,8.50
2013,10,24,11,06,8.60
2013,10,24,11,07,8.60
2013,10,24,11,08,8.70
2013,10,24,11,09,8.70
2013,10,24,11,10,8.70
2013,10,24,11,11,8.70
2013,10,24,11,12,8.80
2013,10,24,11,13,8.80
2013,10,24,11,14,8.80
2013,10,24,11,15,8.70
2013,10,24,11,16,8.70
2013,10,24,11,17,8.70
2013,10,24,11,18,8.70
2013,10,24,11,19,8.70
2013,10,24,11,20,8.70
2013,10,24,11,21,8.70
2013,10,24,11,22,8.70
2013,10,24,11,23,8.70
2013,10,24,11,24,8.70
2013,10,24,11,25,8.70
2013,10,24,11,26,8.60
2013,10,24,11,27,8.60
2013,10,24,11,28,8.70
2013,10,24,11,29,8.70
2013,10,24,11,30,8.70
2013,10,24,11,31,8.80
2013,10,24,11,32,8.80
2013,10,24,11,33,8.80
2013,10,24,11,34,8.90
2013,10,24,11,35,8.90
2013,10,24,11,36,9.00
2013,10,24,11,37,9.00
2013,10,24,11,38,9.10
2013,10,24,11,39,9.10
2013,10,24,11,40,9.10
2013,10,24,11,41,9.20
2013,10,24,11,42,9.20
2013,10,24,11,43,9.30
2013,10,24,11,44,9.30
2013,10,24,11,45,9.40
2013,10,24,11,46,9.40
2013,10,24,11,47,9.50
2013,10,24,11,48,9.60
2013,10,24,11,49,9.60
2013,10,24,11,50,9.60
2013,10,24,11,51,9.70
2013,10,24,11,52,9.80
2013,10,24,11,53,9.80
2013,10,24,11,54,9.90
2013,10,24,11,55,9.90
2013,10,24,11,56,10.00
2013,10,24,11,57,10.10
2013,10,24,11,58,10.10
2013,10,24,11,59,10.30
2013,10,24,12,00,10.40
2013,10,24,12,01,10.50
2013,10,24,12,02,10.60
2013,10,24,12,03,10.70
2013,10,24,12,04,10.70
2013,10,24,12,05,10.80
2013,10,24,12,06,10.80
2013,10,24,12,07,10.90
2013,10,24,12,08,10.90
2013,10,24,12,09,11.00
2013,10,24,12,10,11.10
2013,10,24,12,11,11.10
2013,10,24,12,12,11.20
2013,10,24,12,13,11.40
2013,10,24,12,14,11.50
2013,10,24,12,15,11.60
2013,10,24,12,16,11.80
2013,10,24,12,17,11.90
2013,10,24,12,18,12.10
2013,10,24,12,19,12.30
2013,10,24,12,20,12.40
2013,10,24,12,21,12.50
2013,10,24,12,22,12.60
2013,10,24,12,23,12.70
2013,10,24,12,24,12.70
2013,10,24,12,25,12.70
2013,10,24,12,26,12.60
2013,10,24,12,27,12.60
2013,10,24,12,28,12.50
2013,10,24,12,29,12.50
2013,10,24,12,30,12.50
2013,10,24,12,31,12.50
2013,10,24,12,32,12.50
2013,10,24,12,33,12.50
2013,10,24,12,34,12.50
2013,10,24,12,35,12.50
2013,10,24,12,36,12.50
2013,10,24,12,37,12.50
2013,10,24,12,38,12.60
2013,10,24,12,39,12.70
2013,10,24,12,40,12.70
2013,10,24,12,41,12.80
2013,10,24,12,42,12.90
2013,10,24,12,43,13.00
2013,10,24,12,44,13.00
2013,10,24,12,45,13.00
2013,10,24,12,46,13.00
2013,10,24,12,47,12.90
2013,10,24,12,48,12.80
2013,10,24,12,49,12.70
2013,10,24,12,50,12.50
2013,10,24,12,51,12.40
2013,10,24,12,52,12.30
2013,10,24,12,53,12.20
2013,10,24,12,54,12.20
2013,10,24,12,55,12.00
2013,10,24,12,56,11.90
2013,10,24,12,57,11.80
2013,10,24,12,58,11.70
2013,10,24,12,59,11.60
2013,10,24,13,00,11.60
2013,10,24,13,01,11.60
2013,10,24,13,02,11.70
2013,10,24,13,03,11.70
2013,10,24,13,04,11.80
2013,10,24,13,05,11.80
2013,10,24,13,06,11.90
2013,10,24,13,07,12.00
2013,10,24,13,08,12.00
2013,10,24,13,09,12.10
2013,10,24,13,10,12.10
2013,10,24,13,11,12.00
2013,10,24,13,12,12.00
2013,10,24,13,13,11.90
2013,10,24,13,14,11.80
2013,10,24,13,15,11.70
2013,10,24,13,16,11.60
2013,10,24,13,17,11.50
2013,10,24,13,18,11.50
2013,10,24,13,19,11.40
2013,10,24,13,20,11.40
2013,10,24,13,21,11.40
2013,10,24,13,22,11.40
2013,10,24,13,23,11.40
2013,10,24,13,24,11.40
2013,10,24,13,25,11.50
2013,10,24,13,26,11.60
2013,10,24,13,27,11.60
2013,10,24,13,28,11.60
2013,10,24,13,29,11.60
2013,10,24,13,30,11.60
2013,10,24,13,31,11.60
2013,10,24,13,32,11.50
2013,10,24,13,33,11.50
2013,10,24,13,34,11.40
2013,10,24,13,35,11.40
2013,10,24,13,36,11.40
2013,10,24,13,37,11.40
2013,10,24,13,38,11.30
2013,10,24,13,39,11.30
2013,10,24,13,40,11.30
2013,10,24,13,41,11.30
2013,10,24,13,42,11.30
2013,10,24,13,43,11.40
2013,10,24,13,44,11.40
2013,10,24,13,45,11.40
2013,10,24,13,46,11.40
2013,10,24,13,47,11.40
2013,10,24,13,48,11.40
2013,10,24,13,49,11.40
2013,10,24,13,50,11.30
2013,10,24,13,51,11.20
2013,10,24,13,52,11.20
2013,10,24,13,53,11.10
2013,10,24,13,54,11.10
2013,10,24,13,55,11.10
2013,10,24,13,56,11.10
2013,10,24,13,57,11.10
2013,10,24,13,58,11.10
2013,10,24,13,59,11.10
2013,10,24,14,00,11.10
2013,10,24,14,01,11.10
2013,10,24,14,02,11.10
2013,10,24,14,03,11.10
2013,10,24,14,04,11.20
2013,10,24,14,05,11.20
2013,10,24,14,06,11.30
2013,10,24,14,07,11.40
2013,10,24,14,08,11.40
2013,10,24,14,09,11.40
2013,10,24,14,10,11.40
2013,10,24,14,11,11.50
2013,10,24,14,12,11.50
2013,10,24,14,13,11.60
2013,10,24,14,14,11.60
2013,10,24,14,15,11.70
2013,10,24,14,16,11.70
2013,10,24,14,17,11.80
2013,10,24,14,18,11.80
2013,10,24,14,19,11.80
2013,10,24,14,20,11.70
2013,10,24,14,21,11.70
2013,10,24,14,22,11.70
2013,10,24,14,23,11.70
2013,10,24,14,24,11.60
2013,10,24,14,25,11.60
2013,10,24,14,26,11.60
2013,10,24,14,27,11.60
2013,10,24,14,28,11.50
2013,10,24,14,29,11.50
2013,10,24,14,30,11.50
2013,10,24,14,31,11.50
2013,10,24,14,32,11.50
2013,10,24,14,33,11.50
2013,10,24,14,34,11.50
2013,10,24,14,35,11.50
2013,10,24,14,36,11.40
2013,10,24,14,37,11.40
2013,10,24,14,38,11.40
2013,10,24,14,39,11.30
2013,10,24,14,40,11.30
2013,10,24,14,41,11.30
2013,10,24,14,42,11.40
2013,10,24,14,43,11.40
2013,10,24,14,44,11.40
2013,10,24,14,45,11.40
2013,10,24,14,46,11.40
2013,10,24,14,47,11.50
2013,10,24,14,48,11.50
2013,10,24,14,49,11.60
2013,10,24,14,50,11.60
2013,10,24,14,51,11.50
2013,10,24,14,52,11.50
2013,10,24,14,53,11.50
2013,10,24,14,54,11.50
2013,10,24,14,55,11.50
2013,10,24,14,56,11.50
2013,10,24,14,57,11.60
2013,10,24,14,58,11.60
2013,10,24,14,59,11.60
2013,10,24,15,00,11.70
2013,10,24,15,01,11.70
2013,10,24,15,02,11.80
2013,10,24,15,03,11.80
2013,10,24,15,04,11.80
2013,10,24,15,05,11.80
2013,10,24,15,06,11.80
2013,10,24,15,07,11.90
2013,10,24,15,08,11.90
2013,10,24,15,09,11.90
2013,10,24,15,10,11.80
2013,10,24,15,11,11.80
2013,10,24,15,12,11.80
2013,10,24,15,13,11.90
2013,10,24,15,14,11.90
2013,10,24,15,15,11.90
2013,10,24,15,16,11.90
2013,10,24,15,17,12.00
2013,10,24,15,18,12.00
2013,10,24,15,19,12.00
2013,10,24,15,20,12.10
2013,10,24,15,21,12.10
2013,10,24,15,22,12.10
2013,10,24,15,23,12.10
2013,10,24,15,24,12.10
2013,10,24,15,25,12.10
2013,10,24,15,26,12.10
2013,10,24,15,27,12.10
2013,10,24,15,28,12.00
2013,10,24,15,29,12.00
2013,10,24,15,30,12.00
2013,10,24,15,31,12.00
2013,10,24,15,32,12.00
2013,10,24,15,33,11.90
2013,10,24,15,34,11.90
2013,10,24,15,35,11.90
2013,10,24,15,36,11.90
2013,10,24,15,37,11.90
2013,10,24,15,38,11.80
2013,10,24,15,39,11.80
2013,10,24,15,40,11.80
2013,10,24,15,41,11.80
2013,10,24,15,42,11.80
2013,10,24,15,43,11.70
2013,10,24,15,44,11.70
2013,10,24,15,45,11.70
2013,10,24,15,46,11.70
2013,10,24,15,47,11.70
2013,10,24,15,48,11.80
2013,10,24,15,49,11.80
2013,10,24,15,50,11.80
2013,10,24,15,51,11.80
2013,10,24,15,52,11.80
2013,10,24,15,53,11.80
2013,10,24,15,54,11.80
2013,10,24,15,55,11.80
2013,10,24,15,56,11.80
2013,10,24,15,57,11.80
2013,10,24,15,58,11.80
2013,10,24,15,59,11.90
2013,10,24,16,00,11.90
2013,10,24,16,01,11.90
2013,10,24,16,02,12.00
2013,10,24,16,03,12.10
2013,10,24,16,04,12.10
2013,10,24,16,05,12.20
2013,10,24,16,06,12.30
2013,10,24,16,07,12.30
2013,10,24,16,08,12.40
2013,10,24,16,09,12.50
2013,10,24,16,10,12.50
2013,10,24,16,11,12.60
2013,10,24,16,12,12.70
2013,10,24,16,13,12.80
2013,10,24,16,14,12.80
2013,10,24,16,15,12.90
2013,10,24,16,16,13.00
2013,10,24,16,17,13.10
2013,10,24,16,18,13.10
2013,10,24,16,19,13.10
2013,10,24,16,20,13.10
2013,10,24,16,21,13.10
2013,10,24,16,22,13.00
2013,10,24,16,23,13.00
2013,10,24,16,24,13.00
2013,10,24,16,25,13.00
2013,10,24,16,26,13.00
2013,10,24,16,27,13.00
2013,10,24,16,28,13.00
2013,10,24,16,29,13.00
2013,10,24,16,30,13.00
2013,10,24,16,31,13.10
2013,10,24,16,32,13.10
2013,10,24,16,33,13.20
2013,10,24,16,34,13.20
2013,10,24,16,35,13.20
2013,10,24,16,36,13.30
2013,10,24,16,37,13.30
2013,10,24,16,38,13.30
2013,10,24,16,39,13.30
2013,10,24,16,40,13.30
2013,10,24,16,41,13.30
2013,10,24,16,42,13.30
2013,10,24,16,43,13.30
2013,10,24,16,44,13.30
2013,10,24,16,45,13.30
2013,10,24,16,46,13.30
2013,10,24,16,47,13.30
2013,10,24,16,48,13.30
2013,10,24,16,49,13.40
2013,10,24,16,50,13.40
2013,10,24,16,51,13.40
2013,10,24,16,52,13.40
2013,10,24,16,53,13.40
2013,10,24,16,54,13.40
2013,10,24,16,55,13.40
2013,10,24,16,56,13.40
2013,10,24,16,57,13.40
2013,10,24,16,58,13.40
2013,10,24,16,59,13.30
2013,10,24,17,00,13.30
2013,10,24,17,01,13.30
2013,10,24,17,02,13.30
2013,10,24,17,03,13.20
2013,10,24,17,04,13.20
2013,10,24,17,05,13.10
2013,10,24,17,06,13.10
2013,10,24,17,07,13.00
2013,10,24,17,08,13.00
2013,10,24,17,09,12.90
2013,10,24,17,10,12.90
2013,10,24,17,11,12.90
2013,10,24,17,12,12.90
2013,10,24,17,13,12.90
2013,10,24,17,14,12.90
2013,10,24,17,15,12.90
2013,10,24,17,16,12.80
2013,10,24,17,17,12.80
2013,10,24,17,18,12.80
2013,10,24,17,19,12.70
2013,10,24,17,20,12.70
2013,10,24,17,21,12.70
2013,10,24,17,22,12.60
2013,10,24,17,23,12.60
2013,10,24,17,24,12.60
2013,10,24,17,25,12.50
2013,10,24,17,26,12.40
2013,10,24,17,27,12.40
2013,10,24,17,28,12.30
2013,10,24,17,29,12.20
2013,10,24,17,30,12.20
2013,10,24,17,31,12.10
2013,10,24,17,32,12.00
2013,10,24,17,33,11.90
2013,10,24,17,34,11.80
2013,10,24,17,35,11.80
2013,10,24,17,36,11.70
2013,10,24,17,37,11.70
2013,10,24,17,38,11.60
2013,10,24,17,39,11.60
2013,10,24,17,40,11.50
2013,10,24,17,41,11.40
2013,10,24,17,42,11.40
2013,10,24,17,43,11.30
2013,10,24,17,44,11.30
2013,10,24,17,45,11.20
2013,10,24,17,46,11.20
2013,10,24,17,47,11.10
2013,10,24,17,48,11.10
2013,10,24,17,49,11.00
2013,10,24,17,50,11.00